Wind_Speed
12 12 11 10 9 8 7 5 4 3 1 1 3 4 6 7 8 10 12 14 15 17 18 19 20 22 23 24 26 27 27 28 29 31 32 32 33 34 35 35 35 35
12 11 11 10 9 8 7 5 4 2 1 1 2 4 5 7 9 11 13 15 16 17 18 19 20 21 22 24 26 27 28 30 31 32 34 34 35 35 35 35 34 34
11 11 10 10 9 8 7 6 4 3 1 1 2 4 6 8 10 12 14 15 16 17 18 19 21 22 23 25 27 28 30 31 32 33 34 35 35 34 34 33 31 31
11 11 11 11 10 9 8 6 5 4 2 2 3 5 7 9 11 13 14 16 17 19 20 21 23 24 25 27 29 31 32 33 34 35 36 36 35 33 32 32 32 32
12 12 12 12 11 9 8 6 4 2 2 3 5 7 9 10 12 14 16 17 19 21 22 24 25 27 28 30 31 33 34 36 37 37 38 37 35 33 33 34 35 34
13 13 13 12 10 9 6 4 2 2 3 5 7 9 11 12 13 15 17 19 21 23 25 27 29 30 31 32 33 34 36 37 38 39 40 40 37 34 34 36 36 34
13 13 12 11 9 7 5 4 3 3 5 6 8 10 12 13 15 17 19 21 23 25 27 29 30 31 32 33 34 35 37 38 39 40 40 41 41 38 36 37 37 36
14 13 11 10 9 7 6 4 3 4 6 8 10 11 13 14 16 18 20 22 25 27 29 30 31 32 33 34 35 36 38 39 40 40 41 42 42 41 40 39 39 39
14 13 11 10 9 8 6 3 3 5 8 10 12 13 14 16 18 20 22 24 26 28 30 32 33 34 34 35 36 38 39 41 41 41 41 41 41 42 42 41 41 41
14 13 12 10 9 7 4 2 4 7 9 11 13 14 16 18 20 22 23 25 27 29 32 34 35 36 36 37 38 39 40 41 42 41 41 41 41 42 42 43 43 43
14 13 11 10 8 5 3 3 5 8 10 12 14 16 18 21 23 24 25 26 28 31 33 35 37 37 38 39 40 41 42 42 42 42 42 43 43 44 44 45 45 45
14 13 11 9 7 5 3 4 6 9 11 13 16 18 21 23 25 26 27 28 31 33 35 37 38 39 40 40 41 42 42 43 43 43 44 45 46 46 47 47 47 46
14 13 11 10 7 5 5 6 8 10 12 15 17 21 23 26 27 29 29 30 33 35 36 38 39 40 41 42 42 43 43 43 44 44 45 46 48 48 49 47 46 43
15 13 12 10 8 6 6 7 9 11 13 16 19 23 25 27 29 30 31 32 34 36 37 38 39 41 42 42 43 43 43 43 44 45 47 48 49 49 47 45 43 41
15 14 13 11 8 7 8 9 11 13 15 18 21 24 27 28 30 31 32 33 35 36 37 39 40 42 42 43 43 43 43 43 45 46 48 48 48 46 43 41 40 38
16 15 14 11 9 8 10 11 13 15 17 19 22 25 27 29 30 31 32 33 35 37 38 40 41 42 43 43 43 43 43 44 46 47 47 46 44 41 39 38 37 34
17 16 14 12 10 10 12 13 15 16 18 20 23 25 27 29 31 32 32 34 36 38 39 41 42 43 43 43 43 43 44 45 46 46 46 44 40 38 38 37 33 29
17 16 14 13 12 13 14 15 16 18 19 21 24 26 28 30 31 32 33 35 37 39 40 41 42 43 43 43 43 44 45 45 45 45 44 41 38 38 39 36 30 25
17 16 15 14 14 14 15 16 17 19 21 23 25 26 28 30 32 33 34 36 38 40 42 43 43 43 43 43 43 44 44 44 44 42 41 39 38 39 40 35 28 26
18 17 16 15 15 15 16 17 19 20 22 24 25 27 29 31 32 34 35 36 38 41 43 43 43 43 43 43 42 43 44 43 41 39 38 38 39 39 38 34 28 26
19 19 18 16 16 16 18 19 20 21 23 25 26 28 30 31 33 34 35 37 39 43 44 44 43 43 42 42 42 43 43 41 39 38 37 38 38 37 34 30 26 23
20 20 18 17 17 17 19 20 21 22 24 26 27 29 30 32 34 35 36 38 41 43 45 44 43 42 41 41 42 43 42 39 37 36 35 36 36 34 31 27 23 20
21 20 19 17 17 19 20 21 22 23 25 27 28 30 31 33 34 36 38 40 42 44 45 44 43 42 41 41 42 42 40 37 35 34 33 34 34 32 28 25 21 19
22 21 19 18 19 21 22 23 23 25 26 28 29 30 32 33 35 37 39 41 43 44 44 43 42 41 40 41 42 41 39 35 33 33 32 32 32 30 27 25 22 19
22 21 20 20 21 23 24 25 25 26 28 29 30 31 32 34 36 38 40 42 43 44 43 42 41 40 40 40 41 40 37 33 32 32 31 30 30 28 26 25 23 19
23 22 21 22 24 26 27 27 27 28 30 31 32 32 33 34 36 39 40 41 42 43 42 40 40 39 39 40 40 38 35 31 30 30 29 28 28 26 24 24 23 20
Wind_Direction
167 166 164 161 159 156 152 149 147 147 131 17 359 355 351 344 337 334 336 338 338 336 334 334 333 332 332 331 328 326 324 321 318 316 314 313 313 312 313 313 312 311
166 166 164 161 160 160 159 159 163 167 185 328 340 341 337 334 333 336 339 338 336 333 332 331 330 329 328 326 323 321 319 317 315 313 312 311 311 310 310 310 310 308
166 166 165 163 163 165 166 169 175 181 200 279 320 330 330 331 334 336 336 333 330 329 329 327 326 325 325 323 321 319 317 316 315 313 311 309 308 308 308 308 307 306
167 167 167 168 169 171 174 177 181 191 214 278 312 322 324 326 329 330 330 329 329 329 329 327 326 326 325 325 324 322 320 319 317 315 313 311 310 310 309 307 305 304
173 173 173 174 175 176 179 182 188 207 259 299 310 313 316 320 325 329 331 332 332 331 330 329 329 329 329 328 326 324 322 321 320 318 316 314 313 313 309 305 303 303
179 179 180 179 179 180 180 186 210 262 293 303 307 308 312 320 327 332 334 335 335 334 334 334 334 333 331 329 327 325 323 322 321 320 317 315 315 314 308 304 304 302
186 186 186 184 183 184 185 199 235 276 297 302 304 307 314 324 331 334 337 338 338 338 338 337 335 332 329 327 326 324 324 322 321 320 318 316 316 315 311 308 307 306
190 192 193 192 191 191 194 209 250 289 304 305 306 312 322 329 332 335 337 338 338 337 336 334 332 330 328 327 327 326 325 324 323 322 320 318 316 316 314 312 310 309
193 197 201 201 199 197 201 224 283 307 312 313 316 322 328 330 331 332 333 334 333 332 331 331 330 330 329 329 328 328 328 327 325 323 321 319 317 315 314 312 311 309
198 204 209 210 206 204 213 265 310 315 316 319 322 327 329 328 327 327 328 328 328 328 328 329 330 330 330 330 331 331 330 328 326 324 321 319 317 315 314 312 311 309
206 212 216 217 214 217 241 294 312 316 317 321 324 327 327 325 324 324 325 325 325 327 328 329 330 330 331 332 333 332 331 329 327 325 322 320 318 316 315 314 312 310
215 219 222 222 223 234 264 296 310 315 317 321 323 323 321 320 321 323 324 326 328 330 331 330 330 331 332 334 334 334 332 330 328 326 324 321 320 318 318 316 314 313
223 226 227 228 232 246 274 296 307 311 314 318 319 317 316 317 322 325 327 329 331 332 331 330 330 332 334 335 335 335 333 331 328 326 324 323 322 321 320 319 318 317
228 232 233 232 237 254 277 292 300 304 308 313 314 313 314 319 325 328 330 331 331 331 329 329 331 333 335 336 336 335 333 330 328 327 327 326 325 323 322 321 321 319
228 234 237 237 242 258 275 286 293 298 304 309 312 313 317 322 326 329 330 330 329 329 327 329 332 334 335 336 336 335 333 331 330 330 330 327 325 324 323 321 319 317
227 233 237 241 247 260 273 282 288 295 302 308 311 315 319 323 326 328 328 328 328 328 328 330 333 334 335 337 337 335 334 333 333 332 329 327 325 326 326 323 319 318
228 232 237 242 250 262 272 280 287 294 301 307 311 315 319 322 324 326 327 328 328 328 329 331 334 335 336 337 337 336 336 335 334 331 330 329 329 331 331 327 323 322
230 233 237 244 253 264 273 280 287 294 300 305 310 314 318 321 323 325 326 328 329 329 330 333 336 336 337 338 338 338 337 336 334 332 332 333 334 335 335 331 326 326
234 236 239 246 255 265 274 281 287 292 298 304 309 313 317 320 322 323 325 328 329 330 333 335 337 336 337 339 339 338 338 336 334 333 335 338 338 336 335 333 329 329
237 239 242 249 258 268 275 281 286 292 298 303 307 312 316 318 321 323 325 327 330 332 334 335 336 337 339 340 339 338 338 336 335 337 340 341 340 335 333 333 332 330
237 240 245 252 261 269 276 281 286 293 298 302 306 311 314 317 320 322 324 328 331 332 332 333 335 337 339 339 339 340 340 337 337 341 343 342 339 335 333 335 336 336
237 242 248 255 263 270 275 281 287 293 297 301 305 309 312 315 318 321 324 328 330 330 330 332 335 337 339 339 341 341 340 338 339 343 344 342 339 336 336 341 345 346
238 244 251 257 264 270 275 281 286 292 296 299 303 307 310 313 317 320 325 328 329 327 328 331 334 337 339 340 342 342 340 338 340 343 344 343 341 339 343 349 350 349
239 246 253 259 265 270 275 280 285 290 294 296 300 304 308 311 315 319 324 327 327 325 326 330 334 336 339 341 342 342 340 339 343 345 345 344 343 343 348 354 354 350
240 247 254 260 265 269 274 278 283 286 290 293 298 302 305 309 313 318 322 324 324 324 326 330 334 336 339 341 342 342 340 341 346 348 346 346 345 346 351 358 358 353
241 248 254 259 264 269 273 276 280 284 289 292 295 299 303 308 312 316 320 322 323 323 326 331 333 336 339 341 342 341 340 343 349 350 349 348 347 348 354 0 1 359
Height
5926 5927 5927 5928 5928 5929 5929 5930 5930 5930 5930 5930 5930 5930 5930 5930 5930 5929 5928 5927 5926 5924 5923 5921 5920 5919 5917 5915 5913 5911 5910 5908 5905 5903 5901 5899 5898 5896 5894 5893 5891 5889
5927 5928 5928 5929 5929 5929 5930 5930 5930 5930 5931 5931 5931 5931 5931 5930 5930 5929 5927 5926 5925 5924 5922 5921 5920 5918 5917 5915 5912 5910 5908 5906 5904 5902 5899 5898 5896 5894 5892 5890 5888 5885
5928 5928 5929 5929 5929 5930 5930 5930 5930 5931 5931 5931 5931 5931 5931 5930 5929 5927 5927 5926 5924 5923 5922 5921 5919 5917 5916 5913 5911 5909 5907 5904 5902 5899 5897 5895 5893 5891 5889 5887 5884 5881
5928 5928 5929 5929 5929 5930 5930 5930 5931 5931 5931 5931 5931 5931 5930 5929 5928 5927 5926 5925 5923 5922 5921 5919 5918 5916 5914 5912 5909 5906 5904 5901 5899 5896 5894 5891 5890 5888 5886 5883 5880 5878
5927 5928 5928 5929 5929 5929 5930 5930 5931 5931 5931 5931 5931 5930 5929 5928 5927 5926 5925 5923 5922 5920 5919 5917 5915 5914 5911 5909 5906 5904 5901 5898 5895 5892 5889 5886 5885 5884 5881 5878 5876 5874
5926 5927 5928 5928 5929 5929 5929 5930 5930 5930 5930 5930 5930 5929 5928 5927 5926 5924 5923 5922 5920 5919 5917 5915 5913 5911 5909 5907 5904 5901 5898 5895 5892 5888 5885 5881 5880 5879 5876 5873 5871 5869
5926 5926 5927 5928 5928 5928 5929 5929 5929 5930 5930 5929 5928 5928 5927 5926 5924 5923 5921 5920 5918 5917 5915 5913 5911 5909 5907 5904 5901 5898 5895 5892 5889 5885 5881 5876 5874 5873 5871 5868 5865 5863
5925 5926 5927 5927 5927 5927 5928 5928 5928 5929 5928 5928 5927 5926 5925 5924 5923 5922 5920 5918 5917 5916 5914 5912 5910 5907 5904 5901 5898 5895 5892 5888 5885 5881 5877 5873 5869 5866 5864 5861 5859 5857
5925 5926 5926 5926 5926 5927 5927 5927 5927 5927 5927 5926 5926 5925 5924 5923 5922 5920 5919 5917 5916 5914 5912 5910 5907 5904 5901 5898 5895 5891 5888 5884 5881 5877 5874 5870 5866 5862 5859 5856 5853 5850
5924 5925 5925 5925 5926 5926 5926 5926 5925 5925 5925 5925 5925 5924 5923 5922 5920 5919 5918 5916 5915 5912 5910 5907 5904 5900 5897 5894 5891 5888 5884 5881 5877 5873 5870 5866 5862 5858 5855 5851 5848 5844
5924 5924 5924 5924 5924 5925 5925 5924 5924 5924 5924 5924 5923 5923 5922 5921 5920 5918 5917 5915 5913 5910 5907 5903 5900 5897 5894 5891 5888 5884 5881 5877 5873 5869 5865 5862 5858 5854 5850 5846 5842 5838
5923 5923 5923 5923 5923 5923 5923 5923 5923 5923 5923 5923 5922 5922 5921 5920 5919 5918 5915 5913 5910 5907 5904 5901 5898 5894 5891 5887 5884 5880 5877 5873 5869 5865 5861 5857 5853 5848 5844 5840 5836 5832
5921 5921 5921 5921 5922 5922 5922 5922 5922 5922 5922 5922 5921 5921 5920 5919 5918 5916 5913 5909 5907 5904 5901 5898 5895 5891 5888 5884 5880 5877 5873 5869 5865 5861 5857 5853 5848 5844 5839 5835 5830 5826
5920 5920 5920 5920 5921 5921 5921 5921 5921 5921 5921 5921 5920 5919 5918 5917 5915 5912 5909 5907 5904 5901 5898 5895 5892 5888 5885 5881 5877 5873 5869 5866 5862 5858 5853 5848 5843 5839 5834 5830 5826 5822
5918 5918 5919 5919 5919 5920 5920 5920 5920 5920 5919 5919 5918 5917 5915 5914 5912 5909 5907 5904 5901 5899 5896 5892 5889 5885 5882 5878 5874 5870 5866 5863 5859 5854 5849 5844 5840 5835 5831 5827 5823 5819
5916 5917 5917 5918 5918 5918 5918 5918 5918 5918 5917 5917 5915 5914 5913 5911 5909 5907 5904 5902 5899 5896 5893 5889 5885 5882 5878 5875 5871 5867 5863 5859 5855 5850 5846 5842 5837 5832 5828 5824 5820 5816
5914 5915 5916 5916 5917 5917 5917 5917 5917 5916 5915 5914 5913 5912 5911 5909 5907 5904 5902 5899 5896 5893 5890 5886 5882 5879 5875 5871 5868 5864 5860 5855 5851 5847 5843 5838 5834 5829 5825 5820 5817 5814
5913 5913 5914 5915 5915 5915 5915 5915 5914 5914 5913 5912 5911 5910 5908 5906 5904 5902 5899 5896 5893 5890 5887 5883 5879 5876 5872 5869 5864 5860 5857 5852 5848 5844 5840 5835 5831 5827 5823 5818 5815 5812
5911 5912 5912 5913 5913 5913 5913 5913 5912 5911 5911 5910 5909 5907 5905 5903 5901 5899 5896 5894 5891 5887 5884 5880 5877 5873 5870 5866 5862 5858 5854 5850 5846 5841 5837 5833 5829 5824 5820 5817 5813 5810
5910 5910 5910 5911 5911 5911 5911 5910 5910 5909 5909 5908 5906 5904 5903 5901 5899 5896 5894 5891 5888 5885 5881 5878 5875 5871 5867 5863 5859 5856 5852 5848 5844 5840 5836 5831 5827 5823 5819 5815 5812 5809
5908 5908 5908 5909 5909 5909 5909 5908 5908 5907 5907 5905 5903 5902 5900 5898 5896 5894 5892 5889 5885 5882 5879 5876 5873 5869 5865 5861 5857 5854 5850 5846 5842 5838 5834 5830 5826 5822 5818 5814 5811 5808
5906 5906 5906 5907 5907 5907 5907 5906 5906 5905 5904 5902 5901 5899 5898 5896 5894 5892 5889 5886 5883 5880 5877 5874 5871 5867 5863 5859 5855 5851 5848 5844 5840 5836 5833 5829 5825 5821 5818 5814 5811 5808
5904 5904 5905 5905 5905 5905 5904 5904 5903 5902 5901 5899 5898 5897 5895 5893 5892 5889 5887 5884 5881 5878 5875 5872 5869 5865 5861 5857 5853 5850 5846 5842 5839 5835 5832 5828 5825 5821 5817 5813 5810 5808
5902 5903 5903 5904 5903 5902 5901 5901 5900 5899 5898 5896 5895 5894 5892 5891 5889 5887 5884 5882 5879 5876 5873 5870 5866 5862 5858 5855 5851 5848 5844 5841 5837 5834 5831 5827 5824 5821 5817 5813 5810 5808
5901 5901 5901 5901 5900 5899 5898 5898 5897 5896 5895 5893 5892 5891 5890 5888 5886 5884 5882 5880 5877 5874 5871 5868 5864 5860 5856 5853 5850 5846 5843 5840 5836 5833 5830 5827 5824 5821 5817 5814 5810 5808
5899 5899 5899 5898 5897 5896 5895 5894 5894 5893 5892 5891 5890 5888 5887 5885 5884 5882 5879 5877 5875 5872 5869 5866 5862 5858 5854 5851 5848 5845 5841 5838 5835 5832 5830 5827 5824 5821 5817 5814 5811 5808